• In Czech Republic
  • List of Countries
  • For 7 days
  • Water Temperature
  • Satellite Maps
  • Weather Map
  • Weather Widgets
  • user-avatar
    Login

    Hourly Weather Cuapiaxtla

    Today, 18 July, Wednesday

    Time Temperature Precipitation Wind Pressure Humidity
    00:00 +10°C° 0 mm 2 mps 571 mmHg 80%
    01:00 +10°C° 0 mm 2 mps 571 mmHg 78%
    02:00 +10°C° 0 mm 1 mps 570 mmHg 77%
    03:00 +10°C° 0 mm 1 mps 570 mmHg 76%
    04:00 +10°C° 0 mm 1 mps 570 mmHg 76%
    05:00 +10°C° 0 mm 1 mps 570 mmHg 75%
    06:00 +12°C° 0 mm 1 mps 571 mmHg 67%
    07:00 +15°C° 0 mm 1 mps 573 mmHg 58%
    08:00 +18°C° 0 mm 1 mps 574 mmHg 49%
    09:00 +19°C° 0 mm 2 mps 574 mmHg 44%
    10:00 +20°C° 0 mm 2 mps 575 mmHg 39%
    11:00 +23°C° 0 mm 2 mps 575 mmHg 34%
    12:00 +22°C° 0 mm 3 mps 575 mmHg 35%
    13:00 +22°C° 0 mm 3 mps 575 mmHg 36%
    14:00 +23°C° 0 mm 4 mps 574 mmHg 37%
    15:00 +21°C° 0 mm 4 mps 574 mmHg 43%
    16:00 +20°C° 0 mm 4 mps 573 mmHg 49%
    17:00 +19°C° 0 mm 4 mps 572 mmHg 55%
    18:00 +17°C° 0 mm 3 mps 572 mmHg 64%
    19:00 +15°C° 0 mm 2 mps 571 mmHg 73%
    20:00 +13°C° 0 mm 2 mps 571 mmHg 82%
    21:00 +13°C° 0 mm 2 mps 571 mmHg 83%
    22:00 +12°C° 0 mm 2 mps 570 mmHg 83%
    23:00 +12°C° 0 mm 2 mps 570 mmHg 83%

    Tomorrow, 19 July, Thursday

    Time Temperature Precipitation Wind Pressure Humidity
    00:00 +11°C° 0 mm 1 mps 570 mmHg 81%
    01:00 +11°C° 0 mm 1 mps 569 mmHg 79%
    02:00 +10°C° 0 mm 1 mps 569 mmHg 77%
    03:00 +10°C° 0 mm 1 mps 569 mmHg 75%
    04:00 +10°C° 0 mm 1 mps 569 mmHg 72%
    05:00 +10°C° 0 mm 1 mps 568 mmHg 69%
    06:00 +12°C° 0 mm 1 mps 570 mmHg 59%
    07:00 +15°C° 0 mm 1 mps 571 mmHg 50%
    08:00 +19°C° 0 mm 1 mps 573 mmHg 40%
    09:00 +20°C° 0 mm 1 mps 573 mmHg 38%
    10:00 +20°C° 0 mm 2 mps 574 mmHg 36%
    11:00 +23°C° 0 mm 2 mps 574 mmHg 34%
    12:00 +22°C° 0 mm 3 mps 574 mmHg 36%
    13:00 +22°C° 0 mm 3 mps 574 mmHg 38%
    14:00 +23°C° 0 mm 4 mps 573 mmHg 40%
    15:00 +21°C° 0.3 mm 4 mps 573 mmHg 48%
    16:00 +20°C° 0.3 mm 3 mps 572 mmHg 56%
    17:00 +19°C° 0.3 mm 3 mps 571 mmHg 64%
    18:00 +17°C° 0.7 mm 3 mps 571 mmHg 71%
    19:00 +16°C° 0.7 mm 2 mps 571 mmHg 78%
    20:00 +14°C° 0.7 mm 1 mps 571 mmHg 85%
    21:00 +14°C° 0.2 mm 1 mps 571 mmHg 85%
    22:00 +13°C° 0.2 mm 1 mps 571 mmHg 85%
    23:00 +13°C° 0.2 mm 1 mps 571 mmHg 85%

    Day after tomorrow, 20 July, Friday

    Time Temperature Precipitation Wind Pressure Humidity
    00:00 +13°C° 0 mm 1 mps 570 mmHg 85%
    01:00 +12°C° 0 mm 1 mps 570 mmHg 85%
    02:00 +12°C° 0 mm 1 mps 569 mmHg 85%
    03:00 +12°C° 0 mm 1 mps 569 mmHg 86%
    04:00 +11°C° 0 mm 1 mps 569 mmHg 87%
    05:00 +11°C° 0 mm 1 mps 569 mmHg 89%
    06:00 +13°C° 0 mm 1 mps 570 mmHg 81%
    07:00 +15°C° 0 mm 1 mps 572 mmHg 74%
    08:00 +18°C° 0 mm 1 mps 573 mmHg 67%
    09:00 +20°C° 0.1 mm 1 mps 573 mmHg 61%
    10:00 +20°C° 0.1 mm 2 mps 574 mmHg 55%
    11:00 +22°C° 0.1 mm 3 mps 575 mmHg 50%
    12:00 +21°C° 0.7 mm 3 mps 574 mmHg 51%
    13:00 +21°C° 0.7 mm 3 mps 574 mmHg 53%
    14:00 +21°C° 0.7 mm 3 mps 573 mmHg 54%
    15:00 +20°C° 0.5 mm 3 mps 573 mmHg 57%
    16:00 +20°C° 0.5 mm 3 mps 572 mmHg 59%
    17:00 +19°C° 0.5 mm 2 mps 572 mmHg 62%
    18:00 +18°C° 0.1 mm 2 mps 572 mmHg 70%
    19:00 +16°C° 0.1 mm 2 mps 571 mmHg 77%
    20:00 +14°C° 0.1 mm 2 mps 571 mmHg 85%
    21:00 +14°C° 0 mm 2 mps 571 mmHg 84%
    22:00 +13°C° 0 mm 2 mps 571 mmHg 83%
    23:00 +12°C° 0 mm 1 mps 571 mmHg 81%

    21 July, Saturday

    Time Temperature Precipitation Wind Pressure Humidity
    00:00 +12°C° 0 mm 1 mps 570 mmHg 79%
    01:00 +11°C° 0 mm 1 mps 570 mmHg 76%
    02:00 +11°C° 0 mm 1 mps 569 mmHg 73%
    03:00 +10°C° 0 mm 1 mps 569 mmHg 70%
    04:00 +10°C° 0 mm 1 mps 569 mmHg 67%
    05:00 +10°C° 0 mm 1 mps 569 mmHg 65%
    06:00 +12°C° 0 mm 2 mps 570 mmHg 56%
    07:00 +15°C° 0 mm 2 mps 572 mmHg 47%
    08:00 +18°C° 0 mm 2 mps 574 mmHg 39%
    09:00 +19°C° 0 mm 2 mps 574 mmHg 36%
    10:00 +21°C° 0 mm 3 mps 575 mmHg 33%
    11:00 +22°C° 0 mm 3 mps 575 mmHg 30%
    12:00 +22°C° 0 mm 4 mps 575 mmHg 32%
    13:00 +23°C° 0 mm 4 mps 574 mmHg 34%
    14:00 +23°C° 0 mm 4 mps 574 mmHg 35%
    15:00 +22°C° 0 mm 5 mps 573 mmHg 42%
    16:00 +20°C° 0 mm 5 mps 573 mmHg 50%
    17:00 +19°C° 0 mm 5 mps 572 mmHg 57%
    18:00 +17°C° 0 mm 4 mps 572 mmHg 66%
    19:00 +14°C° 0 mm 4 mps 572 mmHg 76%
    20:00 +12°C° 0 mm 3 mps 571 mmHg 85%
    21:00 +12°C° 0 mm 3 mps 571 mmHg 85%
    22:00 +12°C° 0 mm 2 mps 571 mmHg 85%
    23:00 +12°C° 0 mm 2 mps 571 mmHg 85%

    22 July, Sunday

    Time Temperature Precipitation Wind Pressure Humidity
    00:00 +10°C° 0 mm 2 mps 571 mmHg 84%
    01:00 +10°C° 0 mm 2 mps 570 mmHg 83%
    02:00 +9°C° 0 mm 2 mps 570 mmHg 81%
    03:00 +9°C° 0 mm 2 mps 570 mmHg 78%
    04:00 +9°C° 0 mm 2 mps 570 mmHg 75%
    05:00 +9°C° 0 mm 2 mps 570 mmHg 71%
    06:00 +13°C° 0 mm 2 mps 571 mmHg 65%
    07:00 +15°C° 0 mm 2 mps 572 mmHg 59%
    08:00 +17°C° 0 mm 2 mps 574 mmHg 53%
    09:00 +19°C° 0 mm 3 mps 574 mmHg 50%
    10:00 +20°C° 0 mm 4 mps 575 mmHg 47%
    11:00 +22°C° 0 mm 4 mps 575 mmHg 44%
    12:00 +22°C° 0 mm 4 mps 575 mmHg 43%
    13:00 +22°C° 0 mm 4 mps 574 mmHg 43%
    14:00 +22°C° 0 mm 4 mps 574 mmHg 42%
    15:00 +21°C° 0 mm 4 mps 573 mmHg 45%
    16:00 +20°C° 0 mm 4 mps 573 mmHg 49%
    17:00 +19°C° 0 mm 4 mps 573 mmHg 52%
    18:00 +17°C° 0 mm 3 mps 572 mmHg 61%
    19:00 +14°C° 0 mm 3 mps 572 mmHg 70%
    20:00 +13°C° 0 mm 2 mps 571 mmHg 79%
    21:00 +13°C° 0 mm 2 mps 571 mmHg 79%
    22:00 +12°C° 0 mm 2 mps 571 mmHg 79%
    23:00 +12°C° 0 mm 2 mps 571 mmHg 80%

    23 July, Monday

    Time Temperature Precipitation Wind Pressure Humidity
    00:00 +10°C° 0 mm 2 mps 570 mmHg 77%
    01:00 +10°C° 0 mm 2 mps 570 mmHg 74%
    02:00 +9°C° 0 mm 2 mps 569 mmHg 71%
    03:00 +9°C° 0 mm 2 mps 569 mmHg 70%
    04:00 +9°C° 0 mm 2 mps 569 mmHg 70%
    05:00 +9°C° 0 mm 2 mps 569 mmHg 69%
    06:00 +13°C° 0 mm 2 mps 571 mmHg 62%
    07:00 +16°C° 0 mm 2 mps 572 mmHg 55%
    08:00 +18°C° 0 mm 2 mps 574 mmHg 48%
    09:00 +20°C° 0 mm 2 mps 574 mmHg 44%
    10:00 +21°C° 0 mm 3 mps 575 mmHg 39%
    11:00 +24°C° 0 mm 3 mps 575 mmHg 35%
    12:00 +24°C° 0 mm 3 mps 575 mmHg 34%
    13:00 +24°C° 0 mm 3 mps 574 mmHg 33%
    14:00 +25°C° 0 mm 3 mps 574 mmHg 33%
    15:00 +24°C° 0 mm 3 mps 573 mmHg 36%
    16:00 +22°C° 0 mm 3 mps 573 mmHg 39%
    17:00 +21°C° 0 mm 3 mps 572 mmHg 43%
    18:00 +18°C° 0 mm 3 mps 572 mmHg 49%
    19:00 +16°C° 0 mm 2 mps 571 mmHg 56%
    20:00 +13°C° 0 mm 2 mps 571 mmHg 63%
    21:00 +13°C° 0 mm 2 mps 571 mmHg 63%
    22:00 +12°C° 0 mm 2 mps 570 mmHg 64%
    23:00 +12°C° 0 mm 2 mps 570 mmHg 64%
    Show more